Flag for Australia Weather past 2 weeks in Mackay, Queensland, Australia

Now
63 °F

Passing clouds.


Feels Like: 63 °F
Forecast: 64 / 77 °F
Wind: 8 mph from Southwest

Location: Mackay Mo

Current Time: Sep 19, 2014 at 12:43:47 AM

Latest Report: Sep 19, 2014 at 12:00 AM


Visibility: N/A

Pressure: 30.07 "Hg

Humidity: 81%

Dew point: 57 °F

Location of MackayLocation

Historic Weather in Mackay — Graph

°F

Mackay temperature yesterday

Maximum temperature yesterday: 77 °F (at 12:00 PM)
Minimum temperature yesterday: 62 °F (at 7:00 AM)
Average temperature yesterday: 69 °F

Past Weeks' High & Low Weather Summary

 TemperatureHumidityPressure
High82 °F (Sep 11, 12:00 PM)99% (Sep 11, 3:00 AM)30.21 "Hg (Sep 11, 3:00 AM)
Low51 °F (Sep 4, 6:00 AM)33% (Sep 5, 1:00 PM)29.92 "Hg (Sep 4, 3:00 PM)
Average68 °F78%30.05 "Hg
* Reported Sep 3 10:00 PM — Sep 18 10:00 PM, Mackay, Weather by CustomWeather, © 2014

Note: Actual official high and low records may vary slightly from our data, if they occured in-between our weather recording intervals... More about our weather records

Advertising

Mackay weather history for previous 24 hours

 ConditionsComfort  
Time TempWeatherWind HumidityBarometerVisibility
10:00 PM
Sep 18
69 °FMild.6 mph84%30.08 "HgN/A
9:00 PM70 °FPassing clouds.6 mph82%30.07 "HgN/A
7:00 PM69 °FMild.6 mph82%30.04 "HgN/A
6:00 PM71 °FMild.8 mph72%30.02 "HgN/A
4:00 PM73 °FMild.10 mph68%29.98 "HgN/A
3:00 PM75 °FSunny.12 mph61%29.98 "Hg19 mi
1:00 PM76 °FMild.14 mph43%30.02 "HgN/A
12:00 PM77 °FSunny.15 mph38%30.04 "Hg12 mi
10:00 AM76 °FMild.12 mph39%30.09 "HgN/A
9:00 AM72 °FHaze.8 mph64%30.09 "Hg12 mi
7:00 AM62 °FCool.3 mph93%30.04 "HgN/A
6:00 AM62 °FHaze.3 mph93%30.01 "Hg12 mi
4:00 AM64 °FMild.6 mph95%29.98 "HgN/A
3:00 AM64 °FMild.7 mph93%29.99 "HgN/A
1:00 AM65 °FMild.7 mph89%30.01 "HgN/A
12:00 AM67 °FMild.3 mph93%30.02 "HgN/A
Weather by CustomWeather, © 2014

See weather overviewHow to use our weather pages